Time,TemperatureF,DewpointF,PressureIn,WindDirection,WindDirectionDegrees,WindSpeedMPH,WindSpeedGustMPH,Humidity,HourlyPrecipIn,Conditions,Clouds,dailyrainin,SoftwareType,DateUTC
2013-05-25 00:00:00,57.0,-99.9,-100.00,South,185,12.0,20.0,-999,-99.99,,,-99.99,,2013-05-25 06:00:00,
2013-05-25 00:52:00,57.0,-99.9,-100.00,South,185,12.0,20.0,-999,-99.99,,,-99.99,,2013-05-25 06:52:00,
2013-05-25 01:00:00,55.0,-99.9,-100.00,South,185,7.0,20.0,-999,-99.99,,,-99.99,,2013-05-25 07:00:00,
2013-05-25 01:52:00,55.0,-99.9,-100.00,South,185,7.0,20.0,-999,-99.99,,,-99.99,,2013-05-25 07:52:00,
2013-05-25 02:00:00,53.0,-99.9,-100.00,South,185,17.0,24.0,-999,-99.99,,,-99.99,,2013-05-25 08:00:00,
2013-05-25 02:52:00,53.0,-99.9,-100.00,South,185,17.0,24.0,-999,-99.99,,,-99.99,,2013-05-25 08:52:00,
2013-05-25 03:00:00,57.0,-99.9,-100.00,South,185,18.0,28.0,-999,-99.99,,,-99.99,,2013-05-25 09:00:00,
2013-05-25 03:53:00,57.0,-99.9,-100.00,South,185,18.0,28.0,-999,-99.99,,,-99.99,,2013-05-25 09:53:00,
2013-05-25 04:00:00,55.0,-99.9,-100.00,South,185,17.0,28.0,-999,-99.99,,,-99.99,,2013-05-25 10:00:00,
2013-05-25 04:52:00,55.0,-99.9,-100.00,South,185,17.0,28.0,-999,-99.99,,,-99.99,,2013-05-25 10:52:00,
2013-05-25 05:00:00,55.0,-99.9,-100.00,South,185,12.0,27.0,-999,-99.99,,,-99.99,,2013-05-25 11:00:00,
2013-05-25 05:53:00,55.0,-99.9,-100.00,South,185,12.0,27.0,-999,-99.99,,,-99.99,,2013-05-25 11:53:00,
2013-05-25 06:52:00,57.0,-99.9,-100.00,South,185,7.0,16.0,-999,-99.99,,,-99.99,,2013-05-25 12:52:00,
2013-05-25 07:00:00,57.0,-99.9,-100.00,South,185,9.0,27.0,-999,-99.99,,,-99.99,,2013-05-25 13:00:00,
2013-05-25 07:02:00,57.0,-99.9,-100.00,South,185,7.0,16.0,-999,-99.99,,,-99.99,,2013-05-25 13:02:00,
2013-05-25 07:52:00,57.0,-99.9,-100.00,South,185,9.0,27.0,-999,-99.99,,,-99.99,,2013-05-25 13:52:00,
2013-05-25 08:00:00,59.0,-99.9,-100.00,South,185,24.0,27.0,-999,-99.99,,,-99.99,,2013-05-25 14:00:00,
2013-05-25 08:52:00,59.0,-99.9,-100.00,South,185,24.0,27.0,-999,-99.99,,,-99.99,,2013-05-25 14:52:00,
2013-05-25 09:00:00,62.0,-99.9,-100.00,South,185,12.0,26.0,-999,-99.99,,,-99.99,,2013-05-25 15:00:00,
2013-05-25 09:53:00,62.0,-99.9,-100.00,South,185,12.0,26.0,-999,-99.99,,,-99.99,,2013-05-25 15:53:00,
2013-05-25 10:00:00,64.0,-99.9,-100.00,South,185,6.0,16.0,-999,-99.99,,,-99.99,,2013-05-25 16:00:00,
2013-05-25 10:52:00,64.0,-99.9,-100.00,South,185,6.0,16.0,-999,-99.99,,,-99.99,,2013-05-25 16:52:00,
2013-05-25 11:00:00,69.0,-99.9,-100.00,South,185,13.0,16.0,-999,-99.99,,,-99.99,,2013-05-25 17:00:00,
2013-05-25 11:52:00,69.0,-99.9,-100.00,South,185,13.0,16.0,-999,-99.99,,,-99.99,,2013-05-25 17:52:00,
2013-05-25 12:00:00,73.0,-99.9,-100.00,South,185,12.0,15.0,-999,-99.99,,,-99.99,,2013-05-25 18:00:00,
2013-05-25 12:52:00,73.0,-99.9,-100.00,South,185,12.0,15.0,-999,-99.99,,,-99.99,,2013-05-25 18:52:00,
2013-05-25 13:52:00,78.0,-99.9,-100.00,South,185,6.0,11.0,-999,-99.99,,,-99.99,,2013-05-25 19:52:00,
2013-05-25 14:00:00,86.0,-99.9,-100.00,SW,218,7.0,12.0,-999,-99.99,,,-99.99,,2013-05-25 20:00:00,
2013-05-25 14:02:00,78.0,-99.9,-100.00,South,185,6.0,11.0,-999,-99.99,,,-99.99,,2013-05-25 20:02:00,
2013-05-25 14:52:00,86.0,-99.9,-100.00,SW,218,7.0,12.0,-999,-99.99,,,-99.99,,2013-05-25 20:52:00,
2013-05-25 15:00:00,87.0,-99.9,-100.00,SW,226,5.0,10.0,-999,-99.99,,,-99.99,,2013-05-25 21:00:00,
2013-05-25 15:53:00,87.0,-99.9,-100.00,SW,226,5.0,10.0,-999,-99.99,,,-99.99,,2013-05-25 21:53:00,
2013-05-25 16:00:00,87.0,-99.9,-100.00,NE,50,11.0,11.0,-999,-99.99,,,-99.99,,2013-05-25 22:00:00,
2013-05-25 16:52:00,87.0,-99.9,-100.00,NE,50,11.0,11.0,-999,-99.99,,,-99.99,,2013-05-25 22:52:00,
2013-05-25 17:00:00,89.0,-99.9,-100.00,NE,50,6.0,11.0,-999,-99.99,,,-99.99,,2013-05-25 23:00:00,
2013-05-25 17:53:00,89.0,-99.9,-100.00,NE,50,6.0,11.0,-999,-99.99,,,-99.99,,2013-05-25 23:53:00,
2013-05-25 18:53:00,86.0,-99.9,-100.00,NE,42,16.0,17.0,-999,-99.99,,,-99.99,,2013-05-26 00:53:00,
2013-05-25 19:00:00,84.0,-99.9,-100.00,South,185,11.0,13.0,-999,-99.99,,,-99.99,,2013-05-26 01:00:00,
2013-05-25 19:01:00,86.0,-99.9,-100.00,NE,42,16.0,17.0,-999,-99.99,,,-99.99,,2013-05-26 01:01:00,
2013-05-25 19:53:00,84.0,-99.9,-100.00,South,185,11.0,13.0,-999,-99.99,,,-99.99,,2013-05-26 01:53:00,
2013-05-25 20:00:00,73.0,-99.9,-100.00,South,185,4.0,7.0,-999,-99.99,,,-99.99,,2013-05-26 02:00:00,
2013-05-25 20:53:00,73.0,-99.9,-100.00,South,185,4.0,7.0,-999,-99.99,,,-99.99,,2013-05-26 02:53:00,
2013-05-25 21:00:00,64.0,-99.9,-100.00,South,185,6.0,7.0,-999,-99.99,,,-99.99,,2013-05-26 03:00:00,
2013-05-25 21:53:00,64.0,-99.9,-100.00,South,185,6.0,7.0,-999,-99.99,,,-99.99,,2013-05-26 03:53:00,
2013-05-25 22:00:00,62.0,-99.9,-100.00,South,185,6.0,10.0,-999,-99.99,,,-99.99,,2013-05-26 04:00:00,
2013-05-25 22:53:00,62.0,-99.9,-100.00,South,185,6.0,10.0,-999,-99.99,,,-99.99,,2013-05-26 04:53:00,
2013-05-25 23:00:00,60.0,-99.9,-100.00,South,185,2.0,5.0,-999,-99.99,,,-99.99,,2013-05-26 05:00:00,
2013-05-25 23:52:00,60.0,-99.9,-100.00,South,185,2.0,5.0,-999,-99.99,,,-99.99,,2013-05-26 05:52:00,